Home > Weather > Livonia > Past weeks

Flag for USA Past Weather in Livonia, Michigan, USA — Yesterday and Last 2 Weeks

Now
59 °F

Passing clouds.


Feels Like: 58 °F
Forecast: 55 / 80 °F
Wind: 6 mph from North

Location: Detroit Metropolitan Wayne County Airport

Current Time: Jun 29, 2016 at 1:37:02 AM

Latest Report: Jun 29, 2016 at 12:53 AM


Visibility: 10 mi

Pressure: 30.07 "Hg

Humidity: 64%

Dew Point: 47 °F

Location of LivoniaLocation

Past Weather in Livonia — Graph

°F

Livonia Temperature Yesterday

Maximum temperature yesterday: 72 °F (at 1:53 PM)
Minimum temperature yesterday: 61 °F (at 11:53 PM)
Average temperature yesterday: 68 °F

High & Low Weather Summary for the Past Weeks

 TemperatureHumidityPressure
High93 °F (Jun 27, 2:53 PM)94% (Jun 16, 4:55 AM)30.28 "Hg (Jun 16, 4:55 AM)
Low56 °F (Jun 24, 5:53 AM)23% (Jun 17, 2:53 PM)29.65 "Hg (Jun 16, 12:53 PM)
Average74 °F56%29.99 "Hg
* Reported Jun 13 11:53 PM — Jun 28 11:53 PM, Livonia, Weather by CustomWeather, © 2016

Note: Actual official high and low records may vary slightly from our data, if they occured in-between our weather recording intervals... More about our weather records

Advertising

Livonia Weather History for the Previous 24 Hours

Scroll right to see more
 ConditionsComfort  
Time TempWeatherWind HumidityBarometerVisibility
11:53 PM
Tue, Jun 28
61 °FPassing clouds.6 mph60%30.07 "Hg10 mi
10:53 PM63 °FPassing clouds.7 mph56%30.07 "Hg10 mi
9:53 PM65 °FPartly sunny.7 mph59%30.06 "Hg10 mi
8:53 PM65 °FOvercast.9 mph63%30.06 "Hg10 mi
7:53 PM66 °FMostly cloudy.10 mph61%30.06 "Hg10 mi
6:53 PM67 °FMostly cloudy.13 mph57%30.05 "Hg10 mi
5:53 PM67 °FMostly cloudy.13 mph61%30.05 "Hg10 mi
4:53 PM71 °FOvercast.9 mph51%30.05 "Hg10 mi
3:53 PM70 °FMostly cloudy.9 mph53%30.04 "Hg10 mi
2:53 PM71 °FPartly sunny.13 mph49%30.04 "Hg10 mi
1:53 PM72 °FPartly sunny.12 mph49%30.04 "Hg10 mi
12:53 PM71 °FPartly sunny.8 mph51%30.04 "Hg10 mi
11:53 AM70 °FPartly sunny.10 mph53%30.04 "Hg10 mi
10:53 AM71 °FScattered clouds.9 mph51%30.04 "Hg10 mi
9:53 AM70 °FScattered clouds.10 mph55%30.04 "Hg10 mi
8:53 AM67 °FBroken clouds.10 mph63%30.04 "Hg10 mi
7:53 AM67 °FCloudy.12 mph61%30.02 "Hg10 mi
6:53 AM67 °FMostly cloudy.7 mph68%30.01 "Hg10 mi
5:53 AM67 °FMostly cloudy.3 mph68%29.99 "Hg10 mi
4:53 AM67 °FMostly cloudy.3 mph68%29.99 "Hg10 mi
3:53 AM67 °FMostly cloudy.3 mph68%29.99 "Hg10 mi
2:53 AM68 °FPassing clouds.8 mph65%29.98 "Hg10 mi
1:53 AM69 °FPassing clouds.3 mph63%29.98 "Hg10 mi
Weather by CustomWeather, © 2016

See weather overviewHow to use our weather pages